This is the latest recevied weather packets stored in our database for station/object KC5DAQ-28. If no packets are shown the sender has not sent any weather packets the latest 10 day(s).
| Time | Temp. | Humidity | Pressure | Rain* | Wind** | Luminosity | Snow |
|---|---|---|---|---|---|---|---|
| 1778252643 | 20° C | 85% | 1007.3 hPa | 0 mm | - | 114 W/m² | - |
| 1778252581 | 20° C | 85% | 1007.2 hPa | 0 mm | - | 114 W/m² | - |
| 1778252523 | 20° C | 85% | 1007.2 hPa | 0 mm | - | 107 W/m² | - |
| 1778252462 | 20° C | 85% | 1007.3 hPa | 0 mm | - | 109 W/m² | - |
| 1778252402 | 20° C | 85% | 1007.3 hPa | 0 mm | - | 118 W/m² | - |
| 1778252342 | 20° C | 85% | 1007.3 hPa | 0 mm | - | 128 W/m² | - |
| 1778252282 | 20° C | 85% | 1007.3 hPa | 0 mm | - | 146 W/m² | - |
| 1778252222 | 20° C | 85% | 1007.3 hPa | 0 mm | - | 146 W/m² | - |
| 1778252162 | 20° C | 85% | 1007.3 hPa | 0 mm | - | 111 W/m² | - |
| 1778252102 | 20° C | 85% | 1007.3 hPa | 0 mm | - | 111 W/m² | - |
| 1778252044 | 20° C | 85% | 1007.4 hPa | 0 mm | - | 72 W/m² | - |
| 1778251983 | 20° C | 85% | 1007.3 hPa | 0 mm | - | 72 W/m² | - |
| 1778251923 | 20° C | 85% | 1007.5 hPa | 0 mm | - | 72 W/m² | - |
| 1778251861 | 20° C | 85% | 1007.4 hPa | 0 mm | - | 72 W/m² | - |
| 1778251801 | 20° C | 85% | 1007.5 hPa | 0 mm | - | 69 W/m² | - |
| 1778251742 | 20° C | 85% | 1007.5 hPa | 0 mm | - | 69 W/m² | - |
| 1778251681 | 20° C | 85% | 1007.5 hPa | 0 mm | - | 69 W/m² | - |
| 1778251623 | 20° C | 85% | 1007.4 hPa | 0 mm | - | 70 W/m² | - |
| 1778251561 | 20.56° C | 85% | 1007.5 hPa | 0 mm | - | 70 W/m² | - |
| 1778251503 | 20.56° C | 86% | 1007.6 hPa | 0 mm | - | 67 W/m² | - |
| 1778251441 | 20.56° C | 86% | 1007.5 hPa | 0 mm | - | 65 W/m² | - |
| 1778251383 | 20.56° C | 86% | 1007.4 hPa | 0 mm | - | 128 W/m² | - |
| 1778251323 | 20.56° C | 86% | 1007.3 hPa | 0 mm | - | 128 W/m² | - |
| 1778251263 | 20.56° C | 86% | 1007.3 hPa | 0 mm | - | 128 W/m² | - |
| 1778251200 | 20.56° C | 86% | 1007.2 hPa | 0 mm | - | 128 W/m² | - |
* Rain latest hour (hover to see other rain measurements)
** Current wind speed in m/s (hover to see current wind gust speed)